Weather in Khordogoy

Russia / Sakha (Yakutia) Republic     62°36′20″N   115°40′45″E
temp.,
°C
wind,
m/s
gust,
m/s
humid.,
%
clouds,
%
prec.,
mm/h
press.,
hPa
HPBL,
m
26 february, fri
fri2600:00−34ene1110088 0.0 103519
03:00−35ene1110077 0.0 103419
06:00−35ene229965 0.0 103119
09:00−35ene129972 0.0 103019
12:00−28ene2598100 0.0 1027256
15:00−25ene4796100 0.1 1024358
18:00−25ene3696100 0.0 1024371
21:00−25ne3697100 0.1 1024224
27 february, sat
sat2700:00−27ne229999 0.1 102466
03:00−30nne1110099 0.1 102319
06:00−29n1299100 0.1 102441
09:00−30nw1298100 0.1 102441
12:00−26wnw1291100 0.0 1025313
15:00−23wnw3690100 0.0 1024417
18:00−23wnw3790100 0.0 1025449
21:00−26nw2395100 0.0 102786
28 february, sun
sun2800:00−27w2795100 0.0 1027184
03:00−32wsw259693 0.0 102780
06:00−33wsw269619 0.0 102990
09:00−34wsw269510 0.0 1030119
12:00−27w37903 0.0 1030438
15:00−24w368543 0.0 1030801
18:00−26wsw2392100 0.0 103131
21:00−31wsw229699 0.0 103219
1 march, mon
mon100:00−33wsw12960 0.0 103319
03:00−34wsw12970 0.0 103319
06:00−36wsw12970 0.0 103319
09:00−36wsw12960 0.0 103419
12:00−28w24895 0.0 1032355
15:00−25wsw238552 0.0 1031721
18:00−28wsw1292100 0.0 103119
21:00−33w1198100 0.0 103219
2 march, tue
tue200:00−36w119954 0.0 103119
03:00−38w119940 0.0 103119
06:00−39w1110043 0.0 103119
09:00−39wnw119929 0.0 103018
12:00−31nnw119026 0.0 1029270
15:00−27n118660 0.0 1028442
18:00−31n1192100 0.0 102819
21:00−36nw119665 0.0 103019